WZZ9GQ LICA-LBSF

Flight info

Callsign WZZ9GQ
Flight time 1h 4m
Altitude 36000
Route CDC L869 KOGEB DCT CRN DCT GEMVI DCT GOKEL/N0433F370 DCT UNDER DCT DOBAR DCT NASKO P127 VELBA T343 MOREK
Aircraft A21N/M-SDE1E2E3FGIJ1J4RWXY/LB1

Departure

Time 2026-05-08 13:18
Airport Lamezia Terme Sant'Eufemia International Airport (LICA)

Arrival

Time 2026-05-08 14:22
Airport Sofia Airport (LBSF)
Time Latitude Longitude Altitude Speed Heading
2026-05-08 13:09 38.90859 16.24613 60 ft 0 kts 95°
2026-05-08 13:11 38.90859 16.24617 60 ft 0 kts 98°
2026-05-08 13:11 38.90859 16.24619 60 ft 2 kts 102°
2026-05-08 13:11 38.90839 16.24656 61 ft 7 kts 140°
2026-05-08 13:12 38.90781 16.24715 60 ft 14 kts 110°
2026-05-08 13:12 38.90765 16.24845 61 ft 14 kts 97°
2026-05-08 13:12 38.90749 16.24979 60 ft 15 kts 99°
2026-05-08 13:12 38.90734 16.25105 60 ft 12 kts 98°
2026-05-08 13:13 38.90720 16.25218 60 ft 12 kts 107°
2026-05-08 13:13 38.90664 16.25305 60 ft 11 kts 140°
2026-05-08 13:13 38.90624 16.25389 61 ft 11 kts 102°
2026-05-08 13:13 38.90612 16.25486 62 ft 11 kts 97°
2026-05-08 13:14 38.90606 16.25552 62 ft 12 kts 97°
2026-05-08 13:14 38.90602 16.25585 62 ft 12 kts 97°
2026-05-08 13:14 38.90591 16.25695 63 ft 12 kts 97°
2026-05-08 13:14 38.90579 16.25806 64 ft 12 kts 97°
2026-05-08 13:15 38.90567 16.25917 65 ft 12 kts 98°
2026-05-08 13:15 38.90554 16.26024 66 ft 12 kts 99°
2026-05-08 13:15 38.90542 16.26124 68 ft 10 kts 98°
2026-05-08 13:15 38.90534 16.26192 69 ft 10 kts 98°
2026-05-08 13:16 38.90516 16.26265 71 ft 9 kts 128°
2026-05-08 13:16 38.90448 16.26302 70 ft 12 kts 181°
2026-05-08 13:16 38.90386 16.26291 70 ft 8 kts 188°
2026-05-08 13:16 38.90325 16.26278 69 ft 5 kts 194°
2026-05-08 13:17 38.90307 16.26226 68 ft 9 kts 276°
2026-05-08 13:17 38.90339 16.25949 64 ft 68 kts 279°
2026-05-08 13:17 38.90445 16.25037 58 ft 136 kts 278°
2026-05-08 13:17 38.90609 16.23623 159 ft 178 kts 277°
2026-05-08 13:18 38.90805 16.22064 859 ft 178 kts 278°
2026-05-08 13:18 38.90981 16.20582 1815 ft 165 kts 278°
2026-05-08 13:18 38.91146 16.19164 2351 ft 166 kts 278°
2026-05-08 13:18 38.91322 16.17632 2669 ft 182 kts 278°
2026-05-08 13:19 38.91507 16.15951 3000 ft 199 kts 275°
2026-05-08 13:19 38.91300 16.14114 3280 ft 222 kts 247°
2026-05-08 13:19 38.90317 16.12481 3671 ft 244 kts 219°
2026-05-08 13:19 38.88699 16.11620 4143 ft 265 kts 192°
2026-05-08 13:20 38.86853 16.11328 4919 ft 268 kts 191°
2026-05-08 13:20 38.85027 16.11005 5734 ft 268 kts 192°
2026-05-08 13:20 38.83190 16.10661 6529 ft 270 kts 193°
2026-05-08 13:20 38.81286 16.10580 7270 ft 282 kts 173°
2026-05-08 13:21 38.79505 16.11653 7973 ft 296 kts 143°
2026-05-08 13:21 38.78265 16.13798 8706 ft 308 kts 114°
2026-05-08 13:21 38.77819 16.16511 9395 ft 315 kts 98°
2026-05-08 13:21 38.77560 16.19278 10042 ft 321 kts 98°
2026-05-08 13:22 38.77278 16.22181 10529 ft 333 kts 98°
2026-05-08 13:22 38.76957 16.25183 10945 ft 345 kts 99°
2026-05-08 13:22 38.76611 16.28211 11580 ft 350 kts 100°
2026-05-08 13:22 38.76251 16.31283 12234 ft 353 kts 100°
2026-05-08 13:23 38.75893 16.34420 12881 ft 358 kts 97°
2026-05-08 13:23 38.75957 16.37598 13450 ft 364 kts 79°
2026-05-08 13:23 38.76716 16.40695 14057 ft 366 kts 65°
2026-05-08 13:23 38.77749 16.43673 14646 ft 370 kts 62°
2026-05-08 13:24 38.78831 16.46661 15242 ft 374 kts 62°
2026-05-08 13:24 38.79910 16.49689 15843 ft 376 kts 63°
2026-05-08 13:24 38.80978 16.52758 16420 ft 380 kts 63°
2026-05-08 13:24 38.82046 16.55879 16965 ft 383 kts 64°
2026-05-08 13:25 38.83109 16.59015 17551 ft 385 kts 64°
2026-05-08 13:25 38.84175 16.62167 18083 ft 388 kts 64°
2026-05-08 13:25 38.85250 16.65356 18562 ft 392 kts 64°
2026-05-08 13:25 38.86336 16.68571 19001 ft 398 kts 64°
2026-05-08 13:26 38.87427 16.71807 19419 ft 403 kts 64°
2026-05-08 13:26 38.88547 16.75148 19843 ft 407 kts 64°
2026-05-08 13:26 38.89667 16.78481 20282 ft 411 kts 63°
2026-05-08 13:26 38.90791 16.81834 20699 ft 415 kts 63°
2026-05-08 13:27 38.91941 16.85267 21068 ft 421 kts 63°
2026-05-08 13:27 38.93098 16.88730 21450 ft 425 kts 63°
2026-05-08 13:27 38.94264 16.92224 21835 ft 430 kts 63°
2026-05-08 13:27 38.95453 16.95782 22205 ft 435 kts 63°
2026-05-08 13:28 38.96655 16.99391 22569 ft 439 kts 63°
2026-05-08 13:28 38.97853 17.02995 22951 ft 443 kts 63°
2026-05-08 13:28 38.99017 17.06665 23314 ft 449 kts 66°
2026-05-08 13:28 38.99977 17.10488 23692 ft 455 kts 72°
2026-05-08 13:29 39.00712 17.14453 24081 ft 459 kts 75°
2026-05-08 13:29 39.01363 17.18486 24486 ft 462 kts 76°
2026-05-08 13:29 39.02002 17.22542 24864 ft 466 kts 77°
2026-05-08 13:29 39.02643 17.26597 25244 ft 469 kts 76°
2026-05-08 13:30 39.03297 17.30707 25634 ft 471 kts 76°
2026-05-08 13:30 39.03956 17.34802 26015 ft 473 kts 76°
2026-05-08 13:30 39.04625 17.38939 26368 ft 476 kts 76°
2026-05-08 13:30 39.05309 17.43148 26759 ft 478 kts 76°
2026-05-08 13:31 39.05986 17.47327 27135 ft 480 kts 76°
2026-05-08 13:31 39.06659 17.51514 27509 ft 482 kts 76°
2026-05-08 13:31 39.07336 17.55745 27880 ft 484 kts 76°
2026-05-08 13:31 39.08012 17.59954 28190 ft 487 kts 76°
2026-05-08 13:32 39.08704 17.64272 28480 ft 491 kts 76°
2026-05-08 13:32 39.09385 17.68564 28751 ft 494 kts 77°
2026-05-08 13:32 39.10074 17.72905 29015 ft 498 kts 77°
2026-05-08 13:32 39.11002 17.77180 29273 ft 496 kts 63°
2026-05-08 13:33 39.12744 17.80951 29626 ft 483 kts 44°
2026-05-08 13:33 39.15132 17.83878 29909 ft 468 kts 27°
2026-05-08 13:33 39.17891 17.86099 30261 ft 461 kts 21°
2026-05-08 13:33 39.20655 17.88158 30590 ft 461 kts 21°
2026-05-08 13:34 39.23441 17.90234 30836 ft 464 kts 22°
2026-05-08 13:34 39.26207 17.92325 31135 ft 466 kts 23°
2026-05-08 13:34 39.29002 17.94481 31447 ft 467 kts 23°
2026-05-08 13:34 39.31764 17.96635 31706 ft 469 kts 24°
2026-05-08 13:35 39.34571 17.98838 31965 ft 470 kts 24°
2026-05-08 13:35 39.37340 18.01022 32226 ft 472 kts 24°
2026-05-08 13:35 39.40152 18.03242 32484 ft 473 kts 25°
2026-05-08 13:35 39.42952 18.05457 32751 ft 474 kts 25°
2026-05-08 13:36 39.45789 18.07706 32992 ft 475 kts 25°
2026-05-08 13:36 39.48585 18.09924 33265 ft 476 kts 25°
2026-05-08 13:36 39.51399 18.12164 33518 ft 477 kts 25°
2026-05-08 13:36 39.54248 18.14430 33754 ft 478 kts 25°
2026-05-08 13:37 39.57044 18.16653 33985 ft 478 kts 26°
2026-05-08 13:37 39.59913 18.18935 34243 ft 479 kts 26°
2026-05-08 13:37 39.62719 18.21173 34487 ft 479 kts 26°
2026-05-08 13:37 39.65565 18.23445 34694 ft 480 kts 26°
2026-05-08 13:38 39.68397 18.25710 34909 ft 481 kts 26°
2026-05-08 13:38 39.71246 18.27989 34932 ft 482 kts 26°
2026-05-08 13:38 39.76943 18.32550 34941 ft 482 kts 26°
2026-05-08 13:39 39.82651 18.37130 34942 ft 482 kts 27°
2026-05-08 13:39 39.88323 18.41693 34938 ft 481 kts 27°
2026-05-08 13:40 39.94037 18.46294 34945 ft 480 kts 27°
2026-05-08 13:40 39.99691 18.50860 34944 ft 480 kts 27°
2026-05-08 13:41 40.05342 18.55431 34956 ft 480 kts 28°
2026-05-08 13:41 40.11078 18.60079 34962 ft 481 kts 28°
2026-05-08 13:42 40.16759 18.64693 34959 ft 480 kts 28°
2026-05-08 13:42 40.22412 18.69290 34977 ft 481 kts 29°
2026-05-08 13:43 40.28077 18.73912 34955 ft 480 kts 29°
2026-05-08 13:43 40.33772 18.78566 34977 ft 480 kts 30°
2026-05-08 13:44 40.39440 18.83205 34964 ft 479 kts 30°
2026-05-08 13:44 40.45080 18.87836 34963 ft 478 kts 30°
2026-05-08 13:45 40.50711 18.92468 34969 ft 477 kts 30°
2026-05-08 13:45 40.56157 18.97469 34934 ft 479 kts 38°
2026-05-08 13:46 40.60994 19.03463 34951 ft 481 kts 47°
2026-05-08 13:46 40.65117 19.10377 34963 ft 482 kts 55°
2026-05-08 13:47 40.68803 19.17743 34995 ft 480 kts 57°
2026-05-08 13:47 40.72416 19.25045 34995 ft 479 kts 56°
2026-05-08 13:48 40.76078 19.32413 34987 ft 479 kts 56°
2026-05-08 13:48 40.79599 19.39861 34970 ft 480 kts 63°
2026-05-08 13:49 40.82437 19.47757 34994 ft 479 kts 65°
2026-05-08 13:49 40.85224 19.55766 34995 ft 479 kts 65°
2026-05-08 13:50 40.88009 19.63694 34997 ft 480 kts 65°
2026-05-08 13:50 40.90832 19.71687 34996 ft 480 kts 65°
2026-05-08 13:51 40.93658 19.79699 34986 ft 478 kts 65°
2026-05-08 13:51 40.96450 19.87627 35003 ft 479 kts 66°
2026-05-08 13:52 40.99269 19.95657 34989 ft 478 kts 65°
2026-05-08 13:52 41.02052 20.03601 34998 ft 478 kts 66°
2026-05-08 13:53 41.04831 20.11559 35000 ft 478 kts 66°
2026-05-08 13:53 41.07621 20.19570 35012 ft 478 kts 66°
2026-05-08 13:54 41.10319 20.27343 35009 ft 478 kts 66°
2026-05-08 13:54 41.13120 20.35430 35032 ft 478 kts 66°
2026-05-08 13:55 41.15884 20.43439 35041 ft 478 kts 66°
2026-05-08 13:56 41.20009 20.55430 35053 ft 479 kts 66°
2026-05-08 13:56 41.22757 20.63442 35066 ft 479 kts 66°
2026-05-08 13:57 41.25509 20.71493 35061 ft 478 kts 66°
2026-05-08 13:57 41.28244 20.79517 35074 ft 478 kts 66°
2026-05-08 13:58 41.31000 20.87625 35065 ft 478 kts 66°
2026-05-08 13:58 41.33720 20.95650 35066 ft 478 kts 66°
2026-05-08 13:59 41.36442 21.03710 35058 ft 478 kts 66°
2026-05-08 13:59 41.39152 21.11754 35061 ft 478 kts 66°
2026-05-08 14:00 41.41851 21.19788 35053 ft 478 kts 66°
2026-05-08 14:00 41.44564 21.27890 35062 ft 478 kts 66°
2026-05-08 14:01 41.47269 21.35989 35066 ft 478 kts 66°
2026-05-08 14:01 41.49963 21.44080 35065 ft 477 kts 66°
2026-05-08 14:02 41.52654 21.52183 35064 ft 477 kts 66°
2026-05-08 14:02 41.55335 21.60278 35065 ft 477 kts 66°
2026-05-08 14:03 41.58003 21.68362 35077 ft 477 kts 67°
2026-05-08 14:03 41.60688 21.76525 35067 ft 477 kts 67°
2026-05-08 14:04 41.63344 21.84621 35071 ft 477 kts 67°
2026-05-08 14:04 41.66002 21.92748 35075 ft 476 kts 67°
2026-05-08 14:05 41.68637 22.00834 35238 ft 476 kts 67°
2026-05-08 14:05 41.69958 22.04890 35048 ft 476 kts 67°
2026-05-08 14:05 41.71272 22.08930 35063 ft 476 kts 67°
2026-05-08 14:06 41.73910 22.17071 35078 ft 476 kts 67°
2026-05-08 14:06 41.75215 22.21102 34878 ft 475 kts 67°
2026-05-08 14:06 41.76530 22.25174 34221 ft 479 kts 67°
2026-05-08 14:06 41.77840 22.29235 33251 ft 484 kts 67°
2026-05-08 14:07 41.79177 22.33384 32452 ft 483 kts 67°
2026-05-08 14:07 41.80483 22.37444 31996 ft 475 kts 67°
2026-05-08 14:07 41.81779 22.41480 31596 ft 467 kts 67°
2026-05-08 14:07 41.83044 22.45426 31196 ft 459 kts 68°
2026-05-08 14:08 41.84300 22.49350 30792 ft 452 kts 68°
2026-05-08 14:08 41.85520 22.53171 30389 ft 445 kts 68°
2026-05-08 14:08 41.86720 22.56933 29990 ft 440 kts 68°
2026-05-08 14:08 41.87922 22.60708 29595 ft 439 kts 67°
2026-05-08 14:09 41.89107 22.64434 29203 ft 436 kts 67°
2026-05-08 14:09 41.90298 22.68184 28808 ft 434 kts 68°
2026-05-08 14:09 41.91476 22.71897 28411 ft 432 kts 68°
2026-05-08 14:09 41.92643 22.75584 27935 ft 428 kts 68°
2026-05-08 14:10 41.93792 22.79216 27546 ft 422 kts 68°
2026-05-08 14:10 41.94928 22.82813 27000 ft 421 kts 68°
2026-05-08 14:10 41.96132 22.86417 26215 ft 426 kts 62°
2026-05-08 14:10 41.97999 22.89470 25416 ft 428 kts 38°
2026-05-08 14:11 42.00555 22.91356 24650 ft 426 kts 15°
2026-05-08 14:11 42.03469 22.91888 23886 ft 422 kts 358°
2026-05-08 14:11 42.06403 22.91877 23125 ft 425 kts 358°
2026-05-08 14:11 42.09341 22.91998 22393 ft 428 kts
2026-05-08 14:12 42.12336 22.92321 21648 ft 430 kts
2026-05-08 14:12 42.15336 22.92803 20901 ft 431 kts
2026-05-08 14:12 42.18299 22.93375 20169 ft 432 kts
2026-05-08 14:12 42.21272 22.94005 19436 ft 432 kts
2026-05-08 14:13 42.24204 22.94655 18710 ft 430 kts
2026-05-08 14:13 42.27126 22.95317 17962 ft 415 kts
2026-05-08 14:13 42.29899 22.95952 17231 ft 400 kts 10°
2026-05-08 14:13 42.32604 22.96575 16496 ft 387 kts 10°
2026-05-08 14:14 42.35230 22.97181 15750 ft 376 kts 11°
2026-05-08 14:14 42.37745 22.97764 15009 ft 366 kts 11°
2026-05-08 14:14 42.40213 22.98337 14282 ft 357 kts 11°
2026-05-08 14:14 42.42629 22.98897 13547 ft 349 kts 12°
2026-05-08 14:15 42.44983 22.99443 12816 ft 343 kts 12°
2026-05-08 14:15 42.47315 22.99986 12077 ft 336 kts 12°
2026-05-08 14:15 42.49618 23.00523 11324 ft 330 kts 12°
2026-05-08 14:15 42.51842 23.01078 10589 ft 324 kts 17°
2026-05-08 14:16 42.53782 23.02372 9863 ft 310 kts 42°
2026-05-08 14:16 42.55326 23.04309 9262 ft 299 kts 48°
2026-05-08 14:16 42.56777 23.06296 8647 ft 292 kts 48°
2026-05-08 14:16 42.58204 23.08193 8042 ft 286 kts 46°
2026-05-08 14:17 42.59645 23.10033 7487 ft 277 kts 45°
2026-05-08 14:17 42.61029 23.11750 7112 ft 265 kts 44°
2026-05-08 14:17 42.62376 23.13396 6748 ft 262 kts 44°
2026-05-08 14:17 42.63749 23.15061 6348 ft 262 kts 44°
2026-05-08 14:18 42.65093 23.16682 6015 ft 260 kts 43°
2026-05-08 14:18 42.66452 23.18317 5651 ft 259 kts 42°
2026-05-08 14:18 42.67853 23.19816 5283 ft 256 kts 41°
2026-05-08 14:18 42.69154 23.21390 4819 ft 246 kts 44°
2026-05-08 14:19 42.70394 23.22927 4350 ft 240 kts 45°
2026-05-08 14:19 42.71270 23.24744 4020 ft 223 kts 77°
2026-05-08 14:19 42.71276 23.26759 3712 ft 210 kts 106°
2026-05-08 14:19 42.70811 23.28572 3388 ft 195 kts 109°
2026-05-08 14:20 42.70468 23.30264 3158 ft 176 kts 102°
2026-05-08 14:20 42.70273 23.31818 2924 ft 162 kts 98°
2026-05-08 14:20 42.70155 23.33262 2698 ft 146 kts 95°
2026-05-08 14:20 42.70075 23.34628 2520 ft 143 kts 95°
2026-05-08 14:21 42.69997 23.35988 2343 ft 143 kts 95°
2026-05-08 14:21 42.69915 23.37324 2162 ft 142 kts 95°
2026-05-08 14:21 42.69831 23.38668 1973 ft 142 kts 94°
2026-05-08 14:21 42.69754 23.39991 1819 ft 142 kts 95°
2026-05-08 14:22 42.69674 23.41267 1759 ft 117 kts 94°
2026-05-08 14:22 42.69620 23.42145 1758 ft 67 kts 95°
2026-05-08 14:22 42.69578 23.42538 1758 ft 26 kts 111°
2026-05-08 14:22 42.69492 23.42721 1758 ft 14 kts 129°
2026-05-08 14:23 42.69413 23.42737 1759 ft 13 kts 229°
2026-05-08 14:23 42.69401 23.42625 1759 ft 12 kts 274°
2026-05-08 14:23 42.69409 23.42505 1759 ft 13 kts 275°
2026-05-08 14:23 42.69418 23.42367 1759 ft 16 kts 274°
2026-05-08 14:24 42.69427 23.42204 1759 ft 18 kts 274°
2026-05-08 14:24 42.69438 23.42019 1759 ft 20 kts 275°
2026-05-08 14:24 42.69450 23.41824 1759 ft 20 kts 274°
2026-05-08 14:24 42.69460 23.41635 1759 ft 19 kts 274°
2026-05-08 14:25 42.69471 23.41454 1759 ft 19 kts 274°
2026-05-08 14:25 42.69482 23.41276 1759 ft 18 kts 274°
2026-05-08 14:25 42.69493 23.41101 1759 ft 18 kts 274°
2026-05-08 14:25 42.69503 23.40931 1759 ft 17 kts 275°
2026-05-08 14:26 42.69513 23.40765 1759 ft 17 kts 275°
2026-05-08 14:26 42.69523 23.40601 1759 ft 17 kts 274°
2026-05-08 14:26 42.69532 23.40441 1759 ft 17 kts 275°
2026-05-08 14:26 42.69542 23.40283 1759 ft 16 kts 275°
2026-05-08 14:27 42.69551 23.40134 1759 ft 15 kts 274°
2026-05-08 14:27 42.69560 23.39995 1759 ft 14 kts 274°
2026-05-08 14:27 42.69569 23.39853 1759 ft 15 kts 275°
2026-05-08 14:27 42.69577 23.39707 1759 ft 15 kts 274°
2026-05-08 14:28 42.69556 23.39585 1759 ft 12 kts 201°
2026-05-08 14:28 42.69470 23.39572 1759 ft 12 kts 185°
2026-05-08 14:28 42.69389 23.39565 1759 ft 11 kts 184°
2026-05-08 14:28 42.69323 23.39599 1759 ft 10 kts 112°
2026-05-08 14:29 42.69301 23.39694 1759 ft 10 kts 107°
2026-05-08 14:29 42.69279 23.39786 1759 ft 10 kts 107°
2026-05-08 14:29 42.69265 23.39831 1759 ft 3 kts 139°
2026-05-08 14:29 42.69257 23.39834 1759 ft 1 kts 190°
2026-05-08 14:30 42.69241 23.39829 1759 ft 3 kts 192°
2026-05-08 14:30 42.69213 23.39819 1759 ft 4 kts 196°
2026-05-08 14:30 42.69193 23.39811 1759 ft 0 kts 196°